Location: La Oliva
(42.2466°N, 2.9955°E)
Time: 10:41:54
(UTC+00:00)

CZ-2C R/B - Pass Details

Date: 22 April 2021
Orbit: 639 x 705 km, 98.3° (Epoch: 10 May)

Event Time Altitude Azimuth Distance (km) Brightness Sun altitude
Rises 20:19:34 0° 17° (NNE) 2,956 7.3 -17.6°
Reaches altitude 10° 20:21:49 10° 22° (NNE) 2,039 6.4 -17.9°
Maximum altitude 20:26:10 56° 101° (E) 767 3.7 -18.6°
Enters shadow 20:27:42 36° 159° (SSE) 1,015 4.2 -18.8°
